This demonstration page uses our WeatherBlox Daily Observations layout. Learn more.

Left ArrowRight Arrow

Hourly Observations for May 20, 2017

Temp ( °F °C ) Dew Point ( °F °C ) Humidity (%) Winds ( mph kmh ) Pressure ( in mb ) Visibility ( mi km ) Precip ( " mm )
12:15 am 00:15 Cloudy 45 7 41 5 87 87 N 16 26 29.97 1015 6 10 0.00 0.00
12:35 am 00:35 Cloudy 45 7 41 5 87 87 N 18 30 29.97 1015 10 16 0.00 0.00
12:55 am 00:55 Cloudy 45 7 41 5 87 87 N 17 28 29.97 1015 10 16 0.00 0.00
1:15 am 01:15 Cloudy 45 7 41 5 87 87 N 15 24 29.94 1014 7 11 0.00 0.00
1:35 am 01:35 Cloudy with Nearby Thunderstorms 45 7 39 4 81 81 N 20 31 29.94 1014 6 10 0.00 0.00
1:55 am 01:55 Cloudy with Nearby Thunderstorms 45 7 41 5 87 87 N 17 28 29.94 1014 8 13 0.00 0.00
2:15 am 02:15 Cloudy with Thunderstorms 45 7 39 4 81 81 N 16 26 29.94 1014 5 8 0.03 0.76
2:35 am 02:35 Cloudy with Nearby Thunderstorms 45 7 41 5 87 87 N 16 26 29.94 1014 8 13 0.10 2.54
2:55 am 02:55 Cloudy 45 7 39 4 81 81 N 18 30 29.91 1013 4 6 0.18 4.57
3:15 am 03:15 Cloudy 45 7 39 4 81 81 N 13 20 29.91 1013 5 8 0.07 1.78
3:35 am 03:35 Cloudy 43 6 39 4 87 87 N 13 20 29.91 1013 4 6 0.18 4.57
3:55 am 03:55 Cloudy 43 6 39 4 87 87 NNW 10 17 29.91 1013 7 11 0.21 5.33
4:15 am 04:15 Cloudy 43 6 39 4 87 87 NNW 8 13 29.94 1014 10 16 0.01 0.25
4:35 am 04:35 Cloudy 45 7 39 4 81 81 NNW 12 19 29.91 1013 7 11 0.02 0.51
4:55 am 04:55 Cloudy 45 7 39 4 81 81 NW 12 19 29.94 1014 3 4 0.03 0.76
5:15 am 05:15 Cloudy 43 6 39 4 87 87 NW 10 17 29.94 1014 2 3 0.00 0.00
5:35 am 05:35 Cloudy 43 6 39 4 87 87 NW 15 24 29.91 1013 3 4 0.02 0.51
5:55 am 05:55 Cloudy 43 6 39 4 87 87 NNW 17 28 29.91 1013 3 5 0.04 1.02
6:15 am 06:15 Cloudy 43 6 39 4 87 87 NNW 21 33 29.91 1013 8 13 0.01 0.25
6:35 am 06:35 Cloudy 43 6 37 3 81 81 N 23 37 29.91 1013 10 16 0.01 0.25
6:55 am 06:55 Mostly Cloudy 43 6 37 3 81 81 N 24 39 29.88 1012 10 16 0.01 0.25
7:15 am 07:15 Cloudy 43 6 37 3 81 81 N 22 35 29.91 1013 10 16 0.00 0.00
7:35 am 07:35 Cloudy 43 6 37 3 81 81 NNW 18 30 29.91 1013 10 16 0.00 0.00
7:55 am 07:55 Cloudy 43 6 37 3 81 81 NNW 16 26 29.91 1013 10 16 0.00 0.00
8:15 am 08:15 Cloudy 43 6 37 3 81 81 NNW 15 24 29.91 1013 10 16 0.00 0.00
8:35 am 08:35 Cloudy 43 6 37 3 81 81 NNW 14 22 29.91 1013 10 16 0.00 0.00
8:55 am 08:55 Cloudy 43 6 37 3 81 81 NW 16 26 29.91 1013 10 16 0.00 0.00
9:15 am 09:15 Cloudy 43 6 36 2 76 76 NW 14 22 29.91 1013 10 16 0.00 0.00
9:35 am 09:35 Cloudy 43 6 36 2 76 76 NW 15 24 29.91 1013 10 16 0.00 0.00
9:55 am 09:55 Cloudy 41 5 36 2 81 81 WNW 16 26 29.91 1013 10 16 0.00 0.00
10:15 am 10:15 Cloudy 41 5 36 2 81 81 NW 16 26 29.94 1014 10 16 0.00 0.00
10:35 am 10:35 Cloudy 41 5 36 2 81 81 WNW 15 24 29.94 1014 10 16 0.00 0.00
10:55 am 10:55 Cloudy 41 5 36 2 81 81 WNW 17 28 29.94 1014 10 16 0.00 0.00
11:15 am 11:15 Cloudy 41 5 36 2 81 81 WNW 15 24 29.94 1014 7 11 0.00 0.00
11:35 am 11:35 Cloudy 41 5 36 2 81 81 WNW 18 30 29.94 1014 4 6 0.00 0.00
11:55 am 11:55 Cloudy 41 5 37 3 87 87 NW 16 26 29.94 1014 3 5 0.00 0.00
12:15 pm 12:15 Cloudy 43 6 36 2 76 76 NW 18 30 29.94 1014 10 16 0.00 0.00
12:35 pm 12:35 Cloudy 45 7 36 2 71 71 NW 18 30 29.94 1014 10 16 0.00 0.00
12:55 pm 12:55 Cloudy 45 7 36 2 71 71 NW 18 30 29.94 1014 10 16 0.00 0.00
1:15 pm 13:15 Mostly Cloudy 45 7 36 2 71 71 NW 20 31 29.94 1014 10 16 0.00 0.00
1:35 pm 13:35 Cloudy 45 7 36 2 71 71 NW 20 31 29.94 1014 10 16 0.00 0.00
1:55 pm 13:55 Mostly Cloudy 45 7 36 2 71 71 NW 17 28 29.94 1014 10 16 0.00 0.00
2:15 pm 14:15 Cloudy 46 8 36 2 66 66 NW 17 28 29.91 1013 10 16 0.00 0.00
2:35 pm 14:35 Cloudy 46 8 36 2 66 66 NW 17 28 29.91 1013 10 16 0.00 0.00
2:55 pm 14:55 Cloudy 45 7 36 2 71 71 WNW 20 31 29.94 1014 10 16 0.00 0.00
3:15 pm 15:15 Cloudy 45 7 37 3 76 76 WNW 18 30 29.94 1014 10 16 0.00 0.00
3:35 pm 15:35 Cloudy 45 7 37 3 76 76 NW 17 28 29.94 1014 10 16 0.00 0.00
3:55 pm 15:55 Cloudy 46 8 36 2 66 66 NW 15 24 29.91 1013 10 16 0.00 0.00
4:15 pm 16:15 Cloudy 46 8 36 2 66 66 NW 20 31 29.91 1013 10 16 0.00 0.00
4:35 pm 16:35 Cloudy 46 8 36 2 66 66 NW 18 30 29.94 1014 10 16 0.00 0.00
4:55 pm 16:55 Cloudy 45 7 37 3 76 76 WNW 18 30 29.97 1015 10 16 0.00 0.00
5:15 pm 17:15 Cloudy 45 7 36 2 71 71 NW 18 30 29.97 1015 10 16 0.00 0.00
5:35 pm 17:35 Cloudy 46 8 36 2 66 66 NW 18 30 29.94 1014 10 16 0.00 0.00
5:55 pm 17:55 Cloudy 46 8 36 2 66 66 NW 16 26 29.94 1014 10 16 0.00 0.00
6:15 pm 18:15 Cloudy 46 8 36 2 66 66 NW 16 26 29.94 1014 10 16 0.00 0.00
6:35 pm 18:35 Cloudy 46 8 36 2 66 66 WNW 17 28 29.94 1014 10 16 0.00 0.00
6:55 pm 18:55 Cloudy 46 8 36 2 66 66 NW 18 30 29.94 1014 10 16 0.00 0.00
7:15 pm 19:15 Cloudy 45 7 36 2 71 71 NW 24 39 30.00 1016 10 16 0.00 0.00
7:35 pm 19:35 Cloudy 45 7 34 1 66 66 NW 18 30 30.00 1016 10 16 0.00 0.00
7:55 pm 19:55 Cloudy 45 7 34 1 66 66 NW 17 28 30.00 1016 10 16 0.00 0.00
8:15 pm 20:15 Mostly Cloudy 43 6 34 1 71 71 NW 16 26 30.00 1016 10 16 0.00 0.00
8:35 pm 20:35 Mostly Cloudy 43 6 36 2 76 76 NW 16 26 30.00 1016 10 16 0.00 0.00
8:55 pm 20:55 Cloudy 43 6 36 2 76 76 NW 13 20 30.00 1016 10 16 0.00 0.00
9:15 pm 21:15 Mostly Cloudy 43 6 34 1 71 71 NW 14 22 30.03 1017 10 16 0.00 0.00
9:35 pm 21:35 Mostly Clear 43 6 36 2 76 76 NW 16 26 30.03 1017 10 16 0.00 0.00
9:55 pm 21:55 Partly Cloudy 43 6 36 2 76 76 NW 14 22 30.03 1017 10 16 0.00 0.00
10:15 pm 22:15 Partly Cloudy 43 6 34 1 71 71 NW 12 19 30.03 1017 10 16 0.00 0.00
10:35 pm 22:35 Mostly Clear 41 5 34 1 76 76 NW 12 19 30.06 1018 10 16 0.00 0.00
10:55 pm 22:55 Mostly Clear 39 4 34 1 81 81 WNW 12 19 30.09 1019 10 16 0.00 0.00
11:15 pm 23:15 Clear 39 4 34 1 81 81 WNW 9 15 30.09 1019 10 16 0.00 0.00
11:35 pm 23:35 Clear 39 4 34 1 81 81 WNW 9 15 30.09 1019 10 16 0.00 0.00
11:55 pm 23:55 Clear 39 4 34 1 81 81 W 10 17 30.09 1019 10 16 0.00 0.00

Powered by AerisWeather